Powrót do katalogu

THOR ABLESTAR DEB

AktywnyLEO
NORAD 264·DEBRIS·🇺🇸 United States

Wystrzelony Jun 29, 1961 z Cape Canaveral Space Force Station

Loading…

Następne Przeloty (najbliższe 24 godziny)

TLE

ŚwieżeSource: Space-Track

Epoka: Sep 5, 2026, 13:49 UTC

1 00264U 61015CL  26248.57572712  .00001070  00000-0  37103-3 0  9998
2 00264  66.5244  17.4588 0025357 314.4441  45.4586 14.39328409345228

Śledź THOR ABLESTAR DEB w czasie rzeczywistym z AllMySat

Download on the App Store